TimeCDT,TemperatureF,Dew PointF,Humidity,Sea Level PressureIn,VisibilityMPH,Wind Direction,Wind SpeedMPH,Gust SpeedMPH,PrecipitationIn,Events,Conditions,WindDirDegrees,DateUTC
12:53 AM,77.0,73.9,90,30.02,10.0,Calm,Calm,-,N/A,,Scattered Clouds,0,2013-08-03 05:53:00
1:53 AM,75.9,73.9,94,30.01,9.0,Calm,Calm,-,N/A,,Partly Cloudy,0,2013-08-03 06:53:00
2:53 AM,73.9,73.0,97,30.00,5.0,Calm,Calm,-,N/A,,Clear,0,2013-08-03 07:53:00
3:53 AM,75.0,73.0,94,30.00,8.0,Calm,Calm,-,N/A,,Clear,0,2013-08-03 08:53:00
4:53 AM,73.9,72.0,93,30.01,7.0,Calm,Calm,-,N/A,,Clear,0,2013-08-03 09:53:00
5:53 AM,73.0,71.1,93,30.01,8.0,Calm,Calm,-,N/A,,Clear,0,2013-08-03 10:53:00
6:53 AM,73.0,71.1,93,30.02,5.0,Calm,Calm,-,N/A,,Clear,0,2013-08-03 11:53:00
7:53 AM,78.1,73.9,87,30.03,7.0,Calm,Calm,-,N/A,,Clear,0,2013-08-03 12:53:00
8:53 AM,82.0,75.9,82,30.05,9.0,Calm,Calm,-,N/A,,Clear,0,2013-08-03 13:53:00
9:53 AM,87.1,73.0,63,30.06,10.0,West,5.8,-,N/A,,Clear,270,2013-08-03 14:53:00
10:53 AM,88.0,71.1,57,30.08,10.0,WNW,6.9,-,N/A,,Clear,290,2013-08-03 15:53:00
11:53 AM,90.0,71.1,54,30.07,10.0,Variable,4.6,-,N/A,,Clear,0,2013-08-03 16:53:00
12:53 PM,91.0,72.0,53,30.06,10.0,NNE,3.5,32.2,N/A,,Partly Cloudy,30,2013-08-03 17:53:00
1:53 PM,91.0,72.0,53,30.06,10.0,West,3.5,-,N/A,,Clear,270,2013-08-03 18:53:00
2:53 PM,91.9,73.0,54,30.04,10.0,West,4.6,-,N/A,,Clear,270,2013-08-03 19:53:00
3:53 PM,93.0,72.0,50,30.01,10.0,Variable,3.5,-,N/A,,Clear,0,2013-08-03 20:53:00
4:53 PM,91.9,71.1,50,30.01,10.0,NNW,3.5,-,N/A,,Clear,340,2013-08-03 21:53:00
5:53 PM,91.0,73.0,55,30.01,10.0,Calm,Calm,-,N/A,,Clear,0,2013-08-03 22:53:00
6:53 PM,86.0,73.0,65,30.02,10.0,Calm,Calm,-,N/A,,Clear,0,2013-08-03 23:53:00
7:53 PM,84.0,73.9,72,30.03,10.0,Calm,Calm,-,N/A,,Clear,0,2013-08-04 00:53:00
8:53 PM,81.0,75.9,85,30.04,10.0,Calm,Calm,-,N/A,,Clear,0,2013-08-04 01:53:00
9:53 PM,79.0,75.9,90,30.06,10.0,Calm,Calm,-,N/A,,Clear,0,2013-08-04 02:53:00
10:53 PM,78.1,75.9,93,30.06,10.0,Calm,Calm,-,N/A,,Clear,0,2013-08-04 03:53:00
11:53 PM,77.0,75.0,94,30.05,9.0,SSE,3.5,-,N/A,,Clear,150,2013-08-04 04:53:00